Location: Boiro
(42.6475°N, 8.8834°W)
Time: 16:05:02
(UTC+01:00)

Explorer 11/Cluster Stage 4 - Pass Details

Date: 09 December 2021
Orbit: 467 x 1255 km, 28.8° (Epoch: 21 January)

Event Time Altitude Azimuth Distance (km) Brightness Sun altitude
Rises 03:20:40 0° 241° (WSW) 3,115 - -59.3°
Reaches altitude 10° 03:23:25 10° 225° (SW) 2,333 - -58.9°
Maximum altitude 03:27:35 21° 177° (S) 1,858 - -58.2°
Drops below altitude 10° 03:32:25 10° 130° (SE) 2,757 - -57.5°
Sets 03:36:01 0° 117° (ESE) 3,856 - -56.9°
